Flag for U.S.A. Weather past 2 weeks in Fort Bragg, California, U.S.A.

Now
53 °F

Partly sunny.


Feels Like: 51 °F
Forecast: 45 / 59 °F
Wind: 7 mph from North

Location: Ukiah Municipal

Current Time: Feb 27, 2015 at 5:38:35 PM

Latest Report: Feb 27, 2015 at 4:56 PM


Visibility: 10 mi

Pressure: 29.75 "Hg

Humidity: 59%

Dew point: 39 °F

Location of Fort BraggLocation

Historic Weather in Fort Bragg — Graph

°F

Fort Bragg temperature yesterday

Maximum temperature yesterday: 67 °F (at 12:56 PM)
Minimum temperature yesterday: 41 °F (at 6:56 AM)
Average temperature yesterday: 54 °F

Past Weeks' High & Low Weather Summary

 TemperatureHumidityPressure
High77 °F (Feb 15, 2:56 PM)97% (Feb 17, 8:56 AM)30.38 "Hg (Feb 17, 8:56 AM)
Low30 °F (Feb 24, 6:56 AM)10% (Feb 23, 12:56 PM)29.76 "Hg (Feb 27, 3:56 PM)
Average53 °F66%30.07 "Hg
* Reported Feb 12 3:56 PM — Feb 27 3:56 PM, Fort Bragg, Weather by CustomWeather, © 2015

Note: Actual official high and low records may vary slightly from our data, if they occured in-between our weather recording intervals... More about our weather records

Advertising

Fort Bragg weather history for previous 24 hours

 ConditionsComfort  
Time TempWeatherWind HumidityBarometerVisibility
3:56 PM
Fri, Feb 27
56 °FPartly sunny.14 mph55%29.76 "Hg10 mi
2:56 PM57 °FSunny.12 mph53%29.76 "Hg10 mi
1:56 PM58 °FSunny.17 mph51%29.77 "Hg10 mi
12:56 PM58 °FSunny.17 mph56%29.80 "Hg10 mi
11:56 AM57 °FScattered clouds.15 mph58%29.83 "Hg10 mi
10:56 AM56 °FScattered clouds.12 mph60%29.85 "Hg10 mi
9:56 AM55 °FMostly cloudy.13 mph67%29.87 "Hg10 mi
8:56 AM53 °FScattered clouds.15 mph72%29.86 "Hg10 mi
7:56 AM53 °FPartly sunny.7 mph74%29.86 "Hg10 mi
6:56 AM51 °FScattered clouds.6 mph80%29.86 "Hg10 mi
5:56 AM52 °FClear.8 mph77%29.88 "Hg10 mi
4:56 AM52 °FPassing clouds.3 mph77%29.88 "Hg10 mi
3:56 AM53 °FPassing clouds.10 mph72%29.90 "Hg10 mi
2:56 AM54 °FPassing clouds.6 mph69%29.91 "Hg10 mi
1:56 AM49 °FPassing clouds.3 mph84%29.93 "Hg10 mi
12:56 AM53 °FClear.5 mph72%29.95 "Hg10 mi
11:56 PM
Thu, Feb 26
53 °FClear.3 mph72%29.96 "Hg10 mi
10:56 PM54 °FClear.9 mph69%29.97 "Hg10 mi
9:56 PM54 °FClear.13 mph72%29.98 "Hg10 mi
8:56 PM55 °FClear.16 mph69%29.97 "Hg10 mi
7:56 PM56 °FClear.9 mph67%29.97 "Hg10 mi
6:56 PM56 °FClear.10 mph67%29.97 "Hg10 mi
5:56 PM59 °FSunny.10 mph60%29.97 "Hg10 mi
Weather by CustomWeather, © 2015

See weather overviewHow to use our weather pages